Location: Gwatt
(46.7204°N, 7.6223°E)
Time: 18:47:30
(UTC+00:00)

Courier 1B Rocket - Pass Details

Date: 23 January 2021
Orbit: 920 x 1202 km, 28.3° (Epoch: 05 March)

Event Time Altitude Azimuth Distance (km) Brightness Sun altitude
Rises 10:28:48 0° 246° (WSW) 3,936 8.2 21.9°
Reaches altitude 10° 10:33:16 10° 222° (SW) 3,033 8.1 22.2°
Maximum altitude 10:36:35 13° 195° (SSW) 2,811 8.6 22.3°
Drops below altitude 10° 10:39:59 10° 169° (S) 3,094 9.7 22.5°
Sets 10:44:39 0° 145° (SE) 4,081 9.4 22.7°
